Temperature
9 9 8 8 8 8 8 8 8 8 8 8 8 9 9 9 9 9 9 10 10 10 10 10 10 11 11 11 11 11 11 11 10 9 9 9 9 9 8 8 8 8 8
8 8 8 8 8 8 8 8 8 8 8 8 8 8 8 8 9 9 9 9 9 9 9 10 10 10 10 10 10 10 10 10 10 9 8 8 8 8 8 8 8 8 8
8 8 8 8 8 7 7 7 7 7 7 7 8 8 8 8 8 8 8 8 9 9 9 9 9 9 10 10 10 10 9 9 9 9 8 8 8 8 7 7 7 7 7
8 8 7 7 7 7 7 7 7 7 7 7 7 7 7 8 8 8 8 8 8 8 8 8 8 9 9 9 9 9 9 9 9 8 8 8 7 7 7 7 7 7 7
8 7 7 7 7 7 7 7 7 7 7 7 7 7 7 7 7 7 7 7 8 8 8 8 8 8 8 8 9 9 9 8 8 8 8 7 7 7 7 7 7 7 7
7 7 7 7 7 7 7 7 7 7 7 7 7 7 7 7 7 7 7 7 7 7 7 7 8 8 8 8 8 8 8 8 8 8 8 7 7 7 7 7 7 7 7
7 7 7 7 7 7 7 7 6 6 7 7 7 7 7 7 7 7 7 7 7 7 7 7 7 7 7 8 8 8 8 8 8 8 8 8 7 7 7 7 7 7 7
7 7 7 7 7 6 6 6 6 6 6 6 6 7 7 7 7 7 7 7 7 7 7 7 7 7 7 7 7 7 7 7 7 7 7 7 7 7 7 7 7 7 7
7 7 7 7 6 6 6 6 6 6 6 6 6 6 6 6 6 7 7 7 7 7 7 7 7 7 7 7 7 7 7 7 7 7 7 7 7 7 7 7 7 7 7
7 7 7 7 6 6 6 6 6 6 6 6 6 6 6 6 6 7 7 7 7 7 6 6 7 7 7 7 7 7 7 7 7 7 7 7 7 7 7 7 7 7 7
7 7 7 6 6 6 6 6 6 6 6 6 6 6 6 6 6 6 7 7 7 7 7 7 6 6 7 7 7 7 7 7 7 7 7 7 7 7 7 7 7 7 7
7 7 6 6 6 6 6 6 6 6 6 6 6 6 6 6 6 6 6 6 7 7 7 7 7 7 7 7 7 7 7 7 7 7 7 7 7 7 7 7 7 7 7
7 7 6 6 6 6 6 6 6 6 6 6 6 6 6 6 6 6 6 7 7 7 7 7 7 7 7 7 7 7 7 7 7 7 7 7 7 7 7 7 7 7 7
7 7 7 6 6 6 6 7 7 7 7 7 7 6 6 6 6 6 7 7 7 7 7 7 7 7 7 7 7 7 7 7 7 7 7 7 7 7 7 7 7 7 7
7 7 7 7 7 7 7 7 7 7 7 7 7 7 7 7 7 7 7 7 7 7 7 7 7 7 7 7 7 7 7 7 7 7 7 7 7 7 7 7 7 7 7
7 7 7 7 7 7 7 7 7 7 7 7 7 7 7 7 7 7 7 7 7 7 7 7 8 8 8 8 8 8 7 7 7 7 7 7 7 7 7 7 7 7 8
7 7 7 7 7 7 7 7 7 7 7 7 7 7 7 7 7 7 7 7 8 8 8 8 8 8 8 8 8 8 8 7 7 7 7 7 7 7 7 7 8 8 8
7 7 7 8 8 8 8 8 8 8 8 8 8 8 8 8 8 8 8 8 8 8 8 8 8 8 8 8 8 8 8 8 8 8 8 7 7 7 7 7 7 7 8
8 8 8 8 8 8 8 8 8 8 8 8 8 8 8 8 8 8 8 8 8 8 8 8 8 8 8 8 8 8 8 8 8 8 8 8 8 8 8 8 8 8 8
8 8 8 8 8 9 9 9 9 9 9 9 9 9 9 9 9 9 9 9 9 9 9 9 9 9 9 8 8 8 8 8 8 8 8 8 8 8 8 8 8 8 8
8 9 9 9 9 9 9 9 9 9 10 10 10 10 9 9 9 9 9 9 9 9 9 9 9 9 9 9 9 9 9 8 8 8 8 8 8 8 8 8 8 8 8
9 9 9 9 9 10 10 10 10 10 10 10 10 10 10 10 10 10 10 10 10 10 9 9 9 9 9 9 9 9 9 9 9 8 8 8 8 8 8 8 8 8 8
9 9 9 10 10 10 10 10 10 10 11 11 10 10 10 10 10 10 10 10 10 10 10 10 10 10 9 9 9 9 9 9 9 9 9 9 8 8 8 8 8 8 8
9 9 10 10 10 10 10 11 11 11 11 11 11 11 11 11 11 11 11 10 10 10 10 10 10 10 10 10 10 10 9 9 9 9 9 9 9 9 8 8 8 8 8
10 10 10 10 10 10 11 11 11 11 11 11 11 11 11 11 11 11 11 11 11 11 10 10 10 10 10 10 10 10 10 10 10 9 9 9 9 9 9 9 8 8 8
10 10 10 10 11 11 11 11 11 11 12 12 12 12 11 11 11 11 11 11 11 11 11 11 11 11 10 10 10 10 10 10 10 10 10 10 9 9 9 9 9 8 8
Wind_Speed
5 5 5 5 4 5 5 5 5 5 5 6 5 6 6 7 6 6 6 6 6 6 5 5 5 3 3 3 3 3 4 4 6 3 2 3 4 5 5 6 5 4 4
4 4 5 5 5 5 5 5 5 5 6 6 6 7 7 7 7 7 7 7 7 7 6 6 5 4 5 4 4 4 4 4 6 7 4 3 4 4 4 3 3 3 3
4 5 5 5 5 5 5 5 5 5 6 6 7 7 7 7 7 7 6 7 7 6 6 6 6 6 6 5 5 5 5 5 5 7 5 3 3 3 4 3 2 1 1
4 5 5 4 4 4 4 5 5 5 6 6 6 7 7 7 8 7 7 7 7 7 7 7 6 6 5 6 6 6 7 7 7 7 6 4 3 3 3 2 1 0 1
4 4 4 4 5 5 6 6 6 6 7 6 7 7 7 7 7 7 7 8 8 8 8 8 8 9 9 7 6 6 7 7 7 7 6 4 3 3 2 1 2 0 1
4 3 4 4 5 5 5 6 6 6 6 7 7 7 8 7 9 11 8 7 7 8 8 8 8 9 11 12 11 9 7 8 7 5 4 4 3 2 2 2 2 2 1
4 4 4 4 5 5 5 6 6 5 6 6 6 7 7 8 11 12 12 8 8 8 8 7 8 9 9 8 11 12 11 9 7 6 6 4 4 3 3 2 2 2 2
4 4 4 4 4 4 5 5 4 4 5 4 5 6 6 8 11 11 11 9 8 8 8 7 8 8 8 8 9 9 8 7 6 5 5 4 4 3 3 3 3 2 1
4 4 3 4 4 4 4 4 3 4 4 4 4 6 7 8 11 10 9 7 7 8 8 8 7 8 9 10 9 9 8 7 9 9 8 6 5 4 5 4 4 4 2
3 3 3 4 4 3 3 2 3 3 3 4 5 5 6 7 10 11 9 5 6 6 6 7 10 9 10 10 8 7 7 4 4 5 6 5 5 4 4 4 4 3 2
4 4 4 4 3 3 2 2 3 3 4 4 5 5 5 6 8 10 9 5 4 4 5 5 5 9 10 9 7 5 3 2 2 3 3 3 3 3 2 0 3 4 3
5 4 4 3 3 3 3 3 3 3 4 3 4 4 4 5 7 8 10 9 5 4 3 3 4 8 8 7 5 4 5 5 3 3 3 2 2 2 2 2 2 4 5
4 4 3 4 4 3 3 3 3 3 3 2 2 2 3 4 6 10 10 10 9 4 3 5 7 8 7 5 6 6 5 4 3 3 2 1 1 2 2 3 3 3 3
4 3 3 3 3 4 3 3 3 2 2 2 2 1 1 3 4 5 5 5 7 6 5 7 8 8 5 4 4 4 2 1 2 1 1 2 2 2 2 1 1 2 2
4 3 3 3 3 3 3 2 2 0 2 3 2 3 2 0 2 2 2 3 3 3 4 4 4 4 4 4 3 3 2 2 1 1 1 1 2 2 2 1 1 1 1
3 3 2 2 2 2 2 2 4 1 2 2 3 4 2 3 2 2 3 4 4 3 3 3 3 3 2 2 2 2 2 1 0 0 0 1 1 2 2 2 1 0 2
4 3 2 2 2 3 2 2 1 3 3 2 1 2 3 3 3 3 4 6 5 3 2 2 2 2 2 1 1 1 1 1 1 0 0 1 1 1 1 2 2 2 2
3 3 3 3 3 3 3 3 3 2 2 3 4 5 6 5 5 5 5 5 4 3 1 2 2 2 2 2 2 1 2 1 1 1 1 1 1 1 2 2 2 3 3
3 2 2 3 3 3 3 3 3 4 4 3 3 4 6 5 6 6 2 0 2 3 3 3 3 3 3 3 3 3 2 2 2 2 2 2 2 2 2 3 4 5 4
3 4 3 2 2 3 3 3 4 4 4 4 5 5 2 1 2 3 2 3 4 4 4 4 4 4 3 3 3 3 3 3 2 2 3 3 3 2 3 4 4 4 4
3 4 5 3 3 4 4 4 4 5 5 5 6 7 8 5 5 5 5 5 5 5 5 4 4 4 4 3 3 3 3 3 3 3 3 3 3 3 3 4 4 4 5
4 4 4 4 4 4 4 4 4 5 6 6 6 5 9 5 5 5 5 6 6 6 6 5 4 4 4 4 4 4 4 4 4 4 4 4 3 4 4 4 4 4 5
4 4 4 5 5 6 5 4 4 5 5 6 5 5 5 6 6 6 7 6 5 6 8 8 6 5 8 9 9 8 6 7 7 6 5 5 5 5 5 5 6 6 7
5 5 5 5 5 5 5 5 5 5 5 5 5 5 6 6 7 7 7 6 6 8 9 9 9 10 11 11 11 12 12 13 13 12 9 6 6 6 5 6 7 8 8
5 5 5 5 5 5 5 5 5 5 5 5 6 6 6 6 7 7 6 6 7 7 10 11 11 12 13 14 14 15 15 16 16 15 12 8 7 7 7 8 8 8 9
6 6 6 5 5 6 6 6 6 6 6 6 6 6 6 6 7 7 6 5 6 7 9 11 14 15 16 16 17 17 17 17 17 17 14 9 7 8 8 8 10 9 10
Wind_Direction
54 51 47 36 31 34 36 31 30 25 25 27 24 27 30 27 23 28 27 29 36 34 33 46 45 47 63 72 83 92 95 107 119 105 80 105 110 118 116 113 114 120 131
64 57 48 36 36 36 35 27 28 28 27 32 34 35 36 32 27 33 34 32 37 38 35 43 41 56 64 71 87 96 100 99 123 123 113 104 96 115 112 114 121 130 161
73 63 51 43 40 37 36 31 32 32 33 39 41 41 36 29 29 32 38 36 37 38 39 45 43 57 65 71 85 94 97 98 101 121 120 103 92 103 98 95 100 79 192
81 74 60 47 41 38 40 41 40 41 45 43 41 40 37 32 29 32 40 41 39 38 40 44 44 54 68 76 86 90 97 98 102 111 112 107 103 97 102 107 89 55 240
86 74 60 52 49 47 47 45 46 48 50 44 44 40 35 33 28 35 42 48 46 44 42 43 48 58 66 73 89 97 104 106 107 110 112 109 111 118 135 144 142 84 357
90 78 68 68 60 54 53 51 53 51 48 48 46 45 40 34 30 43 51 50 48 49 47 43 48 51 59 67 77 84 102 115 117 114 115 126 138 143 140 143 135 110 336
88 81 80 79 71 62 66 58 53 52 54 51 44 46 41 26 35 44 51 57 55 51 50 47 53 50 56 69 70 68 69 82 104 124 128 140 150 169 150 135 138 152 195
90 87 89 82 76 69 65 59 54 55 57 53 46 44 43 29 36 48 57 58 57 52 50 54 58 48 54 70 75 66 60 59 77 96 120 135 150 157 152 152 155 125 48
96 99 101 98 89 77 68 62 59 66 58 52 51 47 46 27 32 51 66 62 58 49 46 49 56 59 58 73 78 72 61 48 63 83 97 107 116 132 135 106 92 87 52
114 109 105 100 99 92 85 76 65 73 68 59 49 41 48 37 34 50 66 70 62 48 38 38 46 58 59 69 79 81 71 47 49 50 51 53 57 65 100 134 140 128 128
113 101 91 93 102 99 81 72 81 76 68 56 47 32 33 33 35 48 62 69 73 57 40 24 23 43 54 59 71 81 81 74 64 65 52 33 24 22 13 130 169 154 160
99 92 89 88 87 85 73 57 64 80 73 55 45 30 16 15 28 39 54 62 74 72 36 1 0 26 39 39 45 45 60 68 66 60 50 27 9 343 322 321 269 223 219
101 97 90 79 66 68 75 70 62 71 81 66 59 47 9 3 10 25 39 47 54 56 9 358 6 17 23 23 20 29 47 65 63 57 37 337 287 281 316 342 347 343 312
119 118 106 90 69 54 58 68 86 87 97 98 104 95 29 11 5 6 14 21 26 23 3 354 5 16 19 4 2 11 29 83 115 121 276 307 328 348 352 349 346 350 347
130 129 120 113 111 82 65 57 97 118 179 154 159 156 141 85 299 328 13 7 359 347 353 7 14 12 9 3 2 359 9 28 40 13 17 359 349 350 336 338 341 358 337
142 145 146 151 145 132 111 45 23 37 30 98 160 166 191 208 232 290 341 353 354 7 45 22 0 355 348 344 352 352 354 352 315 266 336 310 303 312 321 331 340 302 285
165 177 174 177 179 179 176 168 264 335 341 334 283 219 223 235 252 294 332 343 350 37 45 349 324 311 300 295 275 236 274 286 272 215 238 263 270 285 300 311 315 307 291
175 193 193 200 200 202 206 205 204 216 267 295 291 259 253 259 275 299 331 1 353 3 323 291 282 270 257 246 239 240 261 282 270 266 277 281 273 268 289 293 288 277 281
177 193 204 209 214 213 215 218 222 222 229 248 276 285 264 267 285 292 299 242 274 293 291 281 258 249 246 238 242 245 245 256 261 258 270 273 271 259 273 280 283 287 283
210 225 213 206 218 229 229 226 231 229 229 233 242 247 243 207 267 278 259 239 245 258 265 264 260 249 241 241 245 244 247 254 260 257 262 264 262 251 259 273 276 276 276
226 248 251 244 236 233 233 230 226 223 225 230 239 238 206 203 232 247 253 250 243 246 247 244 247 252 244 236 230 229 229 240 242 240 245 252 255 258 263 266 271 273 276
218 235 241 245 249 248 241 235 226 222 225 231 245 254 227 218 233 242 248 251 245 235 231 225 234 237 232 220 215 212 223 233 239 236 239 246 250 258 263 268 273 276 277
220 231 242 248 248 255 258 249 236 230 232 232 234 236 226 224 233 238 245 248 243 240 235 226 227 241 242 235 229 216 218 232 235 227 228 242 252 258 259 263 270 277 278
221 229 238 248 254 254 253 250 244 237 232 233 233 230 228 228 232 239 241 242 240 241 240 234 232 234 238 240 243 241 241 247 247 242 234 235 247 256 259 263 268 271 274
227 233 239 243 249 251 254 253 248 242 236 231 230 231 233 233 236 242 240 240 239 240 243 242 243 244 244 244 246 249 253 256 255 251 245 239 246 253 258 263 268 272 272
232 238 241 243 245 248 248 250 249 242 238 237 234 233 232 232 236 240 241 240 241 242 246 248 249 249 250 250 253 255 257 258 259 257 250 245 247 256 259 263 269 271 276
Height
1546 1544 1543 1542 1540 1538 1536 1535 1534 1533 1531 1530 1528 1527 1525 1523 1521 1520 1518 1517 1515 1514 1513 1513 1513 1513 1513 1514 1515 1516 1517 1519 1520 1524 1526 1529 1532 1534 1536 1539 1541 1543 1544
1547 1545 1544 1542 1541 1539 1538 1536 1535 1534 1533 1531 1530 1528 1526 1524 1523 1521 1519 1518 1516 1515 1514 1513 1513 1513 1513 1514 1515 1516 1517 1518 1520 1522 1526 1529 1532 1535 1537 1540 1542 1544 1546
1547 1546 1545 1544 1543 1541 1540 1538 1537 1536 1534 1533 1531 1529 1528 1526 1525 1523 1521 1520 1518 1517 1516 1515 1514 1513 1513 1514 1515 1516 1517 1519 1521 1523 1526 1530 1533 1536 1539 1541 1543 1545 1547
1549 1548 1547 1546 1545 1543 1542 1540 1539 1538 1537 1535 1534 1532 1530 1529 1527 1526 1524 1523 1521 1520 1518 1517 1516 1516 1515 1516 1516 1518 1519 1521 1522 1525 1528 1532 1535 1538 1540 1542 1544 1546 1548
1550 1549 1548 1548 1547 1545 1544 1542 1541 1540 1539 1538 1536 1535 1533 1532 1530 1529 1527 1526 1524 1523 1521 1520 1520 1519 1519 1519 1520 1521 1522 1523 1525 1527 1530 1534 1537 1539 1542 1544 1546 1548 1549
1552 1551 1550 1549 1548 1547 1546 1545 1544 1543 1542 1541 1539 1538 1536 1535 1534 1533 1531 1530 1528 1527 1525 1524 1524 1523 1523 1523 1524 1525 1526 1527 1528 1530 1533 1536 1539 1541 1543 1545 1547 1548 1550
1553 1553 1552 1551 1550 1549 1548 1548 1547 1545 1545 1543 1542 1541 1540 1539 1538 1537 1535 1534 1533 1531 1530 1529 1528 1528 1528 1528 1528 1529 1530 1531 1533 1535 1536 1539 1541 1543 1544 1546 1547 1549 1550
1555 1554 1554 1553 1553 1552 1551 1550 1549 1548 1547 1546 1545 1544 1543 1543 1542 1541 1539 1538 1537 1536 1535 1534 1533 1533 1532 1533 1533 1533 1534 1535 1537 1538 1540 1542 1543 1545 1546 1548 1548 1550 1551
1556 1556 1556 1555 1555 1554 1553 1553 1552 1551 1550 1549 1549 1548 1547 1546 1546 1545 1544 1543 1541 1540 1540 1539 1538 1538 1538 1538 1538 1538 1538 1540 1541 1542 1543 1544 1546 1547 1548 1549 1550 1550 1551
1558 1558 1558 1557 1557 1556 1556 1555 1555 1554 1554 1553 1552 1552 1551 1550 1550 1549 1548 1547 1546 1545 1545 1544 1543 1543 1543 1543 1542 1542 1543 1544 1545 1546 1547 1547 1548 1549 1549 1550 1550 1551 1551
1560 1560 1560 1559 1559 1559 1558 1558 1558 1557 1557 1556 1556 1555 1554 1554 1553 1553 1552 1551 1550 1550 1549 1548 1548 1548 1547 1547 1547 1547 1547 1548 1548 1549 1549 1550 1550 1550 1551 1551 1551 1552 1552
1561 1562 1562 1561 1561 1561 1561 1560 1560 1560 1559 1559 1559 1558 1558 1557 1557 1556 1556 1555 1555 1554 1553 1553 1552 1552 1551 1551 1551 1551 1551 1551 1552 1552 1552 1552 1552 1552 1552 1552 1552 1552 1552
1563 1563 1563 1563 1563 1563 1563 1563 1562 1562 1562 1561 1561 1561 1561 1560 1560 1560 1559 1558 1558 1557 1557 1556 1556 1556 1555 1555 1555 1554 1554 1554 1554 1554 1554 1554 1554 1553 1553 1553 1553 1553 1553
1564 1565 1565 1565 1565 1565 1565 1565 1564 1564 1564 1564 1563 1563 1563 1563 1562 1562 1562 1561 1561 1561 1560 1560 1559 1559 1558 1558 1557 1557 1557 1556 1556 1556 1555 1555 1555 1555 1554 1554 1553 1553 1553
1565 1566 1566 1567 1567 1567 1567 1566 1567 1566 1566 1566 1565 1565 1565 1565 1564 1564 1564 1563 1563 1563 1563 1562 1562 1561 1560 1560 1559 1559 1558 1558 1557 1557 1557 1556 1556 1555 1555 1554 1554 1553 1552
1567 1567 1568 1568 1569 1569 1568 1568 1568 1568 1568 1567 1567 1567 1567 1567 1566 1566 1566 1566 1566 1565 1565 1564 1563 1563 1562 1561 1561 1560 1560 1559 1559 1558 1558 1557 1556 1556 1555 1555 1554 1553 1552
1568 1568 1569 1570 1570 1570 1570 1570 1570 1570 1569 1569 1568 1568 1568 1568 1568 1568 1568 1568 1567 1567 1566 1565 1565 1564 1563 1563 1562 1561 1560 1560 1559 1559 1558 1557 1557 1556 1555 1554 1553 1552 1551
1569 1569 1570 1571 1571 1571 1571 1571 1571 1571 1571 1570 1570 1570 1569 1569 1569 1569 1569 1569 1569 1568 1567 1566 1566 1565 1564 1563 1562 1562 1561 1560 1559 1559 1558 1557 1556 1555 1554 1553 1552 1551 1549
1569 1570 1571 1571 1572 1572 1572 1572 1572 1572 1572 1571 1571 1571 1570 1570 1570 1570 1570 1569 1569 1568 1568 1567 1566 1565 1564 1564 1563 1562 1561 1560 1559 1558 1557 1556 1555 1554 1553 1552 1550 1549 1547
1570 1571 1571 1572 1572 1573 1573 1573 1573 1572 1572 1572 1571 1571 1571 1571 1570 1570 1570 1569 1569 1568 1567 1567 1566 1565 1564 1563 1562 1561 1560 1559 1558 1557 1556 1555 1554 1552 1551 1549 1548 1546 1544
1570 1571 1571 1572 1572 1573 1573 1573 1573 1572 1572 1572 1572 1571 1571 1571 1570 1570 1569 1569 1568 1567 1567 1566 1565 1565 1564 1563 1561 1560 1559 1558 1557 1556 1554 1553 1551 1550 1548 1547 1545 1543 1541
1570 1570 1571 1571 1572 1572 1572 1572 1572 1572 1571 1571 1571 1571 1571 1570 1570 1569 1569 1568 1567 1567 1566 1565 1564 1563 1562 1561 1560 1559 1557 1556 1555 1554 1552 1550 1549 1547 1545 1544 1542 1539 1537
1569 1569 1570 1570 1571 1571 1571 1571 1571 1571 1570 1570 1570 1570 1569 1569 1568 1568 1567 1567 1566 1565 1565 1564 1563 1562 1561 1559 1558 1557 1555 1554 1552 1551 1549 1547 1545 1543 1542 1539 1537 1535 1533
1567 1568 1568 1569 1569 1569 1569 1569 1569 1569 1569 1569 1568 1568 1568 1567 1567 1566 1566 1565 1564 1563 1563 1562 1561 1559 1558 1557 1556 1554 1553 1551 1549 1547 1545 1543 1541 1539 1537 1535 1533 1530 1528
1565 1565 1566 1566 1567 1567 1567 1567 1567 1567 1567 1566 1566 1566 1566 1565 1565 1564 1564 1563 1562 1561 1560 1559 1558 1557 1556 1554 1553 1551 1549 1547 1545 1543 1541 1538 1536 1534 1532 1530 1527 1525 1522
1562 1562 1563 1564 1564 1564 1564 1564 1564 1564 1564 1564 1564 1564 1563 1563 1562 1562 1561 1560 1560 1559 1558 1557 1555 1554 1552 1551 1549 1548 1546 1543 1541 1539 1536 1534 1531 1529 1527 1524 1521 1518 1515